DW1188 Weather Reports


Display with metric or nautical units.
time (UTC)temp
F
wind
direction
speed
MPH
gust
MPH
rain 1hr
in
rain 24hr
in
rain mn
in
humidity
%
barometer
mb
20260831013449 68 268 0.0 0.0 0.00 0.00 0.00 35 1017.4
20260831012308 69 265 0.0 0.0 0.00 0.00 0.00 35 1017.5
20260831011137 69 250 0.0 0.0 0.00 0.00 0.00 34 1017.5
20260831005921 69 260 0.0 8.0 0.00 0.00 0.00 34 1017.6
20260831004749 69 268 0.0 0.0 0.00 0.00 0.00 35 1017.5
20260831003600 69 252 0.0 10.0 0.00 0.00 0.00 35 1017.5
20260831002423 69 213 0.0 0.0 0.00 0.00 0.00 35 1017.4
20260831001205 69 262 0.0 8.0 0.00 0.00 0.00 34 1017.5
20260831000025 69 308 0.0 0.0 0.00 0.00 0.00 36 1017.5
20260830234826 69 276 0.0 0.0 0.00 0.00 0.00 36 1017.6
20260830233554 69 238 1.0 12.0 0.00 0.00 0.00 36 1017.7
20260830232331 69 252 0.0 10.0 0.00 0.00 0.00 35 1017.7
20260830231139 69 207 2.0 12.0 0.00 0.00 0.00 35 1017.8
20260830225948 69 267 2.0 10.0 0.00 0.00 0.00 35 1017.9
20260830224738 69 298 1.0 12.0 0.00 0.00 0.00 38 1018.0
20260830223605 68 275 2.0 13.0 0.00 0.00 0.00 37 1018.0
20260830222428 68 240 1.0 11.0 0.00 0.00 0.00 37 1018.2
20260830221221 68 279 1.0 15.0 0.00 0.00 0.00 38 1018.3
20260830220045 67 292 4.0 14.0 0.00 0.00 0.00 38 1018.4
20260830214912 67 234 1.0 0.0 0.00 0.00 0.00 40 1018.5
20260830213731 67 238 0.0 3.0 0.00 0.00 0.00 40 1018.5
20260830212455 66 227 2.0 7.0 0.00 0.00 0.00 41 1018.6
20260830211217 67 271 1.0 11.0 0.00 0.00 0.00 42 1018.7
20260830210046 66 286 0.0 0.0 0.00 0.00 0.00 43 1018.7
20260830204906 66 239 2.0 12.0 0.00 0.00 0.00 41 1018.8
20260830203721 66 230 1.0 0.0 0.00 0.00 0.00 42 1018.8
20260830202538 65 237 4.0 16.0 0.00 0.00 0.00 42 1018.6
20260830201303 65 219 3.0 14.0 0.00 0.00 0.00 44 1018.7
20260830200050 64 257 4.0 16.0 0.00 0.00 0.00 45 1018.8
20260830194919 63 277 5.0 16.0 0.00 0.00 0.00 47 1018.8
20260830193708 63 289 0.0 4.0 0.00 0.00 0.00 45 1018.9
20260830192431 63 249 4.0 19.0 0.00 0.00 0.00 45 1018.8
20260830191255 63 240 5.0 15.0 0.00 0.00 0.00 46 1019.1
20260830190053 62 245 2.0 13.0 0.00 0.00 0.00 48 1019.1
20260830184825 63 178 2.0 11.0 0.00 0.00 0.00 50 1019.2
20260830183610 62 269 0.0 0.0 0.00 0.00 0.00 49 1019.3
20260830180956 61 266 0.0 0.0 0.00 0.00 0.00 52 1019.6
20260830173019 58 300 0.0 0.0 0.00 0.00 0.00 58 1019.7
20260830170521 55 302 0.0 0.0 0.00 0.00 0.00 62 1019.8
20260830165335 55 301 0.0 0.0 0.00 0.00 0.00 63 1019.8
20260830164126 55 301 0.0 0.0 0.00 0.00 0.00 63 1019.8
20260830162901 54 180 0.0 0.0 0.00 0.00 0.00 64 1019.8
20260830161715 54 310 0.0 0.0 0.00 0.00 0.00 65 1019.6
20260830160541 53 314 0.0 0.0 0.00 0.00 0.00 66 1019.5
20260830155356 52 5 0.0 0.0 0.00 0.00 0.00 68 1019.4
20260830154148 52 241 0.0 0.0 0.00 0.00 0.00 67 1019.2
20260830152933 52 167 0.0 0.0 0.00 0.00 0.00 67 1019.2
20260830151658 52 174 0.0 0.0 0.00 0.00 0.00 66 1019.0
20260830145104 51 186 0.0 3.0 0.00 0.00 0.00 67 1018.9
20260830143826 51 144 0.0 0.0 0.00 0.00 0.00 69 1018.7
20260830142634 50 147 0.0 0.0 0.00 0.00 0.00 69 1018.8
20260830141410 51 159 0.0 0.0 0.00 0.00 0.00 69 1018.7
20260830140224 51 140 0.0 0.0 0.00 0.00 0.00 68 1018.4
20260830135000 51 158 0.0 7.0 0.00 0.00 0.00 68 1017.9
20260830133820 51 157 0.0 0.0 0.00 0.00 0.00 69 1017.9
20260830132610 52 242 0.0 0.0 0.00 0.00 0.00 70 1017.8
20260830131403 52 242 0.0 0.0 0.00 0.00 0.00 71 1017.6
20260830130140 52 242 0.0 0.0 0.00 0.00 0.00 71 1017.6
20260830125007 52 242 0.0 0.0 0.00 0.00 0.00 72 1017.4
20260830123820 52 242 0.0 0.0 0.00 0.00 0.00 72 1017.3
20260830121309 53 242 0.0 0.0 0.00 0.00 0.00 71 1017.2
20260830120108 53 242 0.0 0.0 0.00 0.00 0.00 71 1017.5
20260830114924 53 242 0.0 0.0 0.00 0.00 0.00 71 1017.4
20260830113713 54 236 0.0 0.0 0.00 0.00 0.00 70 1017.2
20260830112538 54 236 0.0 0.0 0.00 0.00 0.00 69 1017.0
20260830103144 55 236 0.0 0.0 0.00 0.00 0.00 70 1016.9
20260830102007 55 236 0.0 0.0 0.00 0.00 0.00 70 1016.8
20260830100801 55 236 0.0 0.0 0.00 0.00 0.00 69 1016.9
20260830095526 55 236 0.0 0.0 0.00 0.00 0.00 69 1016.9
20260830094354 55 236 0.0 0.0 0.00 0.00 0.00 69 1016.9
20260830093159 55 236 0.0 0.0 0.00 0.00 0.00 68 1016.8
20260830090618 55 236 0.0 0.0 0.00 0.00 0.00 66 1016.5
20260830085414 55 236 0.0 0.0 0.00 0.00 0.00 66 1016.5
20260830084209 55 236 0.0 0.0 0.00 0.00 0.00 64 1016.7
20260830082950 56 236 0.0 0.0 0.00 0.00 0.00 62 1016.4
20260830081734 56 236 0.0 0.0 0.00 0.00 0.00 61 1016.4
20260830080526 56 236 0.0 0.0 0.00 0.00 0.00 60 1016.3
20260830075347 56 236 0.0 0.0 0.00 0.00 0.00 59 1016.3
20260830074138 56 236 0.0 0.0 0.00 0.00 0.00 59 1016.1
20260830071609 56 215 0.0 0.0 0.00 0.00 0.00 58 1016.2
20260830070404 56 232 0.0 0.0 0.00 0.00 0.00 58 1016.1
20260830065149 55 197 0.0 2.0 0.00 0.00 0.00 59 1016.0
20260830063932 55 253 0.0 0.0 0.00 0.00 0.00 59 1015.9
20260830062654 56 253 0.0 0.0 0.00 0.00 0.00 58 1015.9
20260830061513 56 253 0.0 0.0 0.00 0.00 0.00 57 1015.9
20260830054954 56 269 0.0 0.0 0.00 0.00 0.00 57 1015.9
20260830053814 57 276 0.0 0.0 0.00 0.00 0.00 55 1015.9
20260830052633 57 262 0.0 0.0 0.00 0.00 0.00 54 1015.9
20260830051436 57 250 0.0 0.0 0.00 0.00 0.00 54 1015.7
20260830050227 57 263 0.0 0.0 0.00 0.00 0.00 53 1015.7
20260830045049 58 261 0.0 0.0 0.00 0.00 0.00 52 1015.7
20260830043857 59 238 0.0 3.0 0.00 0.00 0.00 51 1015.7
20260830042719 59 241 1.0 9.0 0.00 0.00 0.00 50 1015.7
20260830033638 60 259 0.0 1.0 0.00 0.00 0.00 49 1015.5
20260830032450 60 249 1.0 9.0 0.00 0.00 0.00 48 1015.4
20260830025951 61 267 0.0 2.0 0.00 0.00 0.00 45 1015.1
20260830024752 61 255 0.0 14.0 0.00 0.00 0.00 44 1014.9
20260830023608 62 237 5.0 14.0 0.00 0.00 0.00 43 1014.7
20260830022421 63 263 3.0 15.0 0.00 0.00 0.00 43 1014.6
20260830021224 63 252 1.0 15.0 0.00 0.00 0.00 44 1014.5
20260830020002 63 237 0.0 0.0 0.00 0.00 0.00 46 1014.4
20260830014832 63 215 0.0 0.0 0.00 0.00 0.00 45 1014.4